Content
SEND FEEDBACK

Daily
Averages
Monthly
Summary
Australia

TABBIMOBLE, NEW SOUTH WALES


Home > Oceania > Australia > New South Wales
Elevation: 18 meters     Latitude: 29 12S     Longitude: 153 16E

WEATHER
 
SELECT A DAY
Number of Records: 195,032;   Date Range: 10/20/03 - 11/25/14
 
SHARE

PRINT THIS DATA

[ ← Previous Day ]
WEATHER ALMANAC - 31 JANUARY, 2013
[ Next Day → ]
[ °F ]   °C
Weather ElementAverageHighLow
Temperature24.6 °C27 °C (12:30 pm)22 °C (5:30 am)
Dewpoint21 °C23 °C (12:00 am)19 °C (12:00 pm)
Humidity80.6 %100 % (5:30 am)57 % (12:00 pm)
Barometer1012.5 hPa1014.2 hPa (12:00 am)1011.2 hPa (2:30 pm)
Wind Speed12.4 km/h18.5 km/h (8:00 pm)
Weather ElementAverage
Visibility8.7 km
Wind DirectionESE (105.4 °)

Weather ElementTotal
Precipitation---
Cooling Degree Days6.2 (Base 18.3)
Growing Degree Days14.5 (Base 10)
Averaged from 54 records on 31 January, 2013
WEATHER CONDITIONS BREAKOUT
WIND DIRECTION BREAKOUT
WEATHER BY HOUR - 31 JANUARY, 2013
[ °F ]   °C
Local TimeTemperatureDewpointHumidityBarometerVisibilityWind DirectionWind SpeedGust SpeedPrecipitationEventsConditions
12:00 AM24 °C23 °C94 %1014.2 hPa10 kmSW (230°)9.3 km/hOvercast
12:30 AM24 °C23 °C94 %1013.2 hPa10 kmSSW (210°)5.6 km/hOvercast
1:00 AM24 °C23 °C94 %1013.2 hPa10 kmSSW (210°)1.9 km/hOvercast
1:30 AM24 °C23 °C94 %1013.2 hPa10 kmSouth (190°)5.6 km/hOvercast
2:00 AM24 °C22 °C89 %1012.2 hPa10 kmSSW (200°)9.3 km/hOvercast
2:30 AM23 °C22 °C94 %1012.2 hPa10 kmSSW (210°)9.3 km/hOvercast
3:00 AM23 °C22 °C94 %1012.2 hPa10 kmSW (220°)11.1 km/hOvercast
3:00 AM23.3 °C22.2 °C91 %1012.9 hPaSW (220°)11.1 km/hOvercast
3:30 AM23 °C22 °C94 %1012.2 hPa10 kmSouth (190°)5.6 km/hOvercast
4:00 AM23 °C22 °C94 %1013.2 hPa2.1 kmENE (60°)13 km/hOvercast
4:30 AM23 °C22 °C94 %1013.2 hPa1.8 kmESE (120°)11.1 km/hOvercast
5:00 AM23 °C22 °C94 %1013.2 hPa2.3 kmESE (120°)7.4 km/hOvercast
5:30 AM22 °C22 °C100 %1013.2 hPa2.4 kmSE (130°)9.3 km/hOvercast
6:00 AM22 °C22 °C100 %1014.2 hPa1.9 kmSSE (150°)11.1 km/hOvercast
6:00 AM22.2 °C21.7 °C95 %1013.9 hPa1.6 kmSSE (150°)11.1 km/hOvercast
6:30 AM22 °C22 °C100 %1014.2 hPa1.9 kmSE (140°)11.1 km/hOvercast
7:00 AM23 °C22 °C94 %1014.2 hPaSouth (170°)11.1 km/hOvercast
8:00 AM23 °C22 °C94 %1014.2 hPa10 kmSouth (190°)13 km/hOvercast
8:30 AM24 °C22 °C89 %1014.2 hPa10 kmSouth (180°)11.1 km/hOvercast
9:00 AM23 °C22 °C94 %1014.2 hPa10 kmSouth (180°)13 km/hOvercast
9:00 AM23.3 °C21.7 °C88 %1014.2 hPaSouth (180°)13 km/h
9:30 AM24 °C22 °C89 %1014.2 hPa10 kmSE (130°)13 km/hOvercast
10:00 AM24 °C22 °C89 %1014.2 hPa10 kmEast (100°)11.1 km/hOvercast
10:30 AM25 °C22 °C83 %1014.2 hPa9 kmEast (80°)11.1 km/hOvercast
11:00 AM24 °C22 °C89 %1014.2 hPa5 kmENE (60°)16.7 km/hOvercast
11:30 AM24 °C20 °C78 %1013.2 hPa10 kmENE (60°)14.8 km/hOvercast
12:00 PM26 °C19 °C65 %1013.2 hPa10 kmESE (120°)11.1 km/hOvercast
12:00 PM26.1 °C19.4 °C57 %1013.2 hPaESE (120°)11.1 km/hOvercast
12:30 PM27 °C20 °C65 %1013.2 hPa10 kmNE (50°)9.3 km/hOvercast
1:00 PM27 °C19 °C61 %1012.2 hPa10 kmNE (50°)9.3 km/hOvercast
1:30 PM26 °C20 °C69 %1012.2 hPa10 kmNE (50°)11.1 km/hOvercast
2:00 PM27 °C20 °C65 %1012.2 hPa10 kmNNE (30°)13 km/hOvercast
2:30 PM26 °C21 °C74 %1011.2 hPa10 kmNE (50°)14.8 km/hOvercast
3:00 PM26 °C21 °C74 %1011.2 hPa10 kmNE (40°)13 km/hOvercast
3:00 PM26.1 °C20.6 °C65 %1011.5 hPaNE (40°)13 km/hOvercast
3:30 PM26 °C20 °C69 %1011.2 hPa10 kmNNE (30°)13 km/hOvercast
4:00 PM26 °C20 °C69 %1011.2 hPa10 kmNorth (10°)13 km/hOvercast
4:30 PM26 °C19 °C65 %1011.2 hPa10 kmNNE (20°)11.1 km/hOvercast
5:00 PM26 °C20 °C69 %1011.2 hPa10 kmNNE (30°)14.8 km/hOvercast
5:30 PM26 °C20 °C69 %1011.2 hPa10 kmNNE (20°)14.8 km/hOvercast
6:00 PM26 °C20 °C69 %1011.2 hPa10 kmNNE (30°)14.8 km/hOvercast
6:00 PM25.6 °C20 °C63 %1011.2 hPaNNE (30°)14.8 km/hOvercast
6:30 PM25 °C20 °C74 %1011.2 hPa10 kmNE (40°)16.7 km/hOvercast
7:00 PM25 °C20 °C74 %1011.2 hPa10 kmNNE (20°)14.8 km/hOvercast
7:30 PM25 °C21 °C78 %1011.2 hPa10 kmNNE (30°)16.7 km/hOvercast
8:00 PM25 °C20 °C74 %1011.2 hPa10 kmNNE (20°)18.5 km/hOvercast
8:30 PM25 °C20 °C74 %1011.2 hPa10 kmNorth (10°)18.5 km/hOvercast
9:00 PM25 °C20 °C74 %1011.2 hPa10 kmNorth (10°)14.8 km/hOvercast
9:00 PM25 °C20 °C67 %1011.5 hPaNorth (10°)14.8 km/hOvercast
9:30 PM25 °C20 °C74 %1011.2 hPa10 kmNorth (10°)16.7 km/hOvercast
10:00 PM25 °C20 °C74 %1011.2 hPa10 kmNorth (10°)16.7 km/hOvercast
10:30 PM25 °C20 °C74 %1011.2 hPa10 kmNorth (360°)16.7 km/hOvercast
11:00 PM25 °C20 °C74 %1011.2 hPa10 kmNorth (360°)14.8 km/hOvercast
11:30 PM25 °C20 °C74 %1011.2 hPa10 kmNorth (10°)14.8 km/hOvercast
Hourly data recorded from YLIS, located 0 kilometers away from Tabbimoble, New South Wales







STORIES FROM OUR PARTNERS